Regional Weather Roundup
Issued by NWS Sterling, VA

Home | Current Version | Previous Version | Text Only | Print | Product List | Glossary Off
Versions: 1 2 3 4 5 6 7 8 9 10 11 12 13 14 15 16 17 18 19 20 21 22 23 24 25 26 27 28 29 30 31 32 33 34 35 36 37 38 39 40 41 42 43 44 45 46 47 48 49 50

000
ASUS41 KLWX 291910
RWRLWX

REGIONAL WEATHER ROUNDUP
NATIONAL WEATHER SERVICE BALTIMORE MD/WASHINGTON DC
300 PM EDT MON JUN 29 2015

Note: "FAIR" indicates few or no clouds below 12,000 feet
with no significant weather and/or obstructions to visibility.
 TC=TEMPERATURE CELSIUS

 * =Non NWS site. Station does not report precipitation (e.g. rain,
    snow, etc.), thunder, or fog.

DCZ001-MDZ009-015-VAZ040>042-051-053>054-292000-
WASHINGTON METRO

CITY           SKY/WX    TMP DP  RH WIND       PRES   REMARKS
WASHINGTON NAT MOSUNNY   82  59  45 S13       29.95F
DULLES         MOSUNNY   80  51  36 CALM      29.95F
ANDREWS AFB    MOSUNNY   80  59  48 S7        29.95F
FT BELVOIR     SUNNY     81  54  38 SE8       29.96S
QUANTICO       MOSUNNY   81  55  40 S9        29.96F
COLLEGE PARK*  MOSUNNY   81  52  36 S5        29.95S
LEESBURG*      SUNNY     82  57  42 S8G16     29.96S
MANASSAS*      SUNNY     81  50  34 S6          N/A
GAITHERSBURG*  PTSUNNY   79  55  44 SW6       30.00S

$$

MDZ006>007-011-014-292000-
BALTIMORE METRO

CITY           SKY/WX    TMP DP  RH WIND       PRES   REMARKS
BWI AIRPORT    MOSUNNY   81  56  42 W6        29.94F
MD SCIENCE CTR   N/A     81  53  37 MISG      29.94F
MARTIN STATE   MOSUNNY   82  57  42 W6        29.96S
ANNAPOLIS      MOSUNNY   80  54  40 W5        29.95S
FORT MEADE*    SUNNY     79  55  44 CALM      29.97F

$$

MDZ012-015-019>023-292000-
MARYLAND EASTERN SHORE

CITY           SKY/WX    TMP DP  RH WIND       PRES   REMARKS
OCEAN CITY     NOT AVBL
SALISBURY      SUNNY     80  54  40 W9        29.96F
BAY BRIDGE AP*   N/A     79  50  36 W5        29.96S
CAMBRIDGE*     SUNNY     79  52  38 CALM      29.96F
EASTON*        MOSUNNY   81  57  44 W7        30.00S

$$

MDZ017>025-292000-
SOUTHERN MARYLAND

CITY           SKY/WX    TMP DP  RH WIND       PRES   REMARKS
PATUXENT RIVER MOSUNNY   80  54  40 VRB6      29.96F
ST INIGOES     SUNNY     80  55  42 CALM      29.96F
LEONARDTOWN*   SUNNY     79  50  36 SW8       29.98F

$$

MDZ003>005-292000-
NORTH CENTRAL MARYLAND

CITY           SKY/WX    TMP DP  RH WIND       PRES   REMARKS
FREDERICK*     PTSUNNY   79  61  53 SW3       29.97F
HAGERSTOWN APT MOSUNNY   80  52  37 SW7       29.95S
WESTMINSTER*   SUNNY     79  55  44 W7        29.96S

$$

MDZ501>502-292000-
WESTERN MARYLAND

CITY           SKY/WX    TMP DP  RH WIND       PRES   REMARKS
OAKLAND*       SUNNY     70  54  56 S9        30.02S
CUMBERLAND*    SUNNY     81  48  32 S8        29.98S

$$

VAZ025>031-292000-
SHENANDOAH VALLEY

CITY           SKY/WX    TMP DP  RH WIND       PRES   REMARKS
WINCHESTER*    MOSUNNY   82  54  36 S7        29.96S
FRONT ROYAL*   MOCLDY    79  55  44 CALM      29.95S
LURAY*         FAIR      82  54  36 S9        29.96F
NEW MARKET*    FAIR      79  55  43 S9        29.94S
STAUNTON*      PTSUNNY   80  55  42 SE13G18   29.99S
WAYNESBORO*    MOCLDY    74  56  54 S7        30.00S

$$

WVZ021-048>050-054>055-292000-
EASTERN WEST VIRGINIA PANHANDLE

CITY           SKY/WX    TMP DP  RH WIND       PRES   REMARKS
MARTINSBURG    MOSUNNY   80  54  40 VRB3      29.95F
PETERSBURG*    SUNNY     80  46  29 SW7       29.95S

$$

VAZ036>039-050-292000-
CENTRAL FOOTHILLS

CITY           SKY/WX    TMP DP  RH WIND       PRES   REMARKS
CHARLOTTESVILL PTSUNNY   78  55  44 S9G18     29.97S
CULPEPER*      SUNNY     80  54  40 S7        29.96F
ORANGE*        MOSUNNY   81  55  41 S10       29.98S
GORDONSVILLE*  FAIR      79  55  44 S9        29.96F
WARRENTON*     FAIR      82  57  42 S6        29.95F

$$

VAZ055>057-292000-
NORTH AND CENTRAL PIEDMONT

CITY           SKY/WX    TMP DP  RH WIND       PRES   REMARKS
FREDERICKSBRG* SUNNY     84  51  32 S9        29.95F
STAFFORD*      SUNNY     80  51  36 SW6       30.00F

$$

NCZ024-NYZ072-PAZ021-071-VAZ022-071-292000-
OTHER REGIONAL OBSERVATIONS

CITY           SKY/WX    TMP DP  RH WIND       PRES   REMARKS
NEW YORK CITY  CLOUDY    74  55  51 VRB6      29.93R
PHILADELPHIA   MOSUNNY   78  53  41 NW14G22   29.94R
PITTSBURGH     CLOUDY    74  53  48 S8        29.94S
ROANOKE        PTSUNNY   79  59  50 S13       29.99F
RICHMOND       MOSUNNY   83  57  41 S9        29.97F
RALEIGH        MOSUNNY   85  60  42 VRB3      29.96F

$$

ANZ530>537-292000-
MARINE OBSERVATIONS

STATION/POSITION TIME  TEMP    WIND        PRES
                       AIR SEA DIR/SP/G
                 (UTC) (F)     (DEG/KT/KT) (MB)
THOMAS PT LIGHT  NOT AVBL
BALT KEY BRIDGE  1800   77     250/  6/  9 1014.0F
COVE POINT       1800   76     180/  8/ 10 1015.6F
LEWISETTA        1800   76 77   80/  5/  6 1014.8F
SOLOMONS ISLAND  1800      79                N/A
PINEY POINT      1800             CALM       N/A

$$




USA.gov is the U.S. government's official web portal to all federal, state and local government web resources and services.